Date,TemperatureHighF,TemperatureAvgF,TemperatureLowF,DewpointHighF,DewpointAvgF,DewpointLowF,HumidityHigh,HumidityAvg,HumidityLow,PressureMaxIn,PressureMinIn,WindSpeedMaxMPH,WindSpeedAvgMPH,GustSpeedMaxMPH,PrecipitationSumIn
2013-1-1,18.0,13.4,7.0,-99.9,-99.9,-99.9,0,0,100,0.00,40.00,9,4,12,0.00
2013-1-2,33.0,20.6,9.0,-99.9,-99.9,-99.9,0,0,100,0.00,40.00,8,4,13,0.00
2013-1-3,29.0,23.5,14.0,-99.9,-99.9,-99.9,0,0,100,0.00,40.00,10,6,20,0.00
2013-1-4,35.0,23.4,11.0,-99.9,-99.9,-99.9,0,0,100,0.00,40.00,10,6,18,0.00
2013-1-5,36.0,30.8,21.0,-99.9,-99.9,-99.9,0,0,100,0.00,40.00,9,5,17,0.01
2013-1-6,29.0,22.2,16.0,-99.9,-99.9,-99.9,0,0,100,0.00,40.00,11,5,21,0.01
2013-1-7,41.0,30.2,18.0,-99.9,-99.9,-99.9,0,0,100,0.00,40.00,12,6,21,0.00
2013-1-8,46.0,37.6,30.0,-99.9,-99.9,-99.9,0,0,100,0.00,40.00,10,4,15,0.00
2013-1-9,44.0,36.6,28.0,-99.9,-99.9,-99.9,0,0,100,0.00,40.00,9,4,15,0.00
2013-1-10,41.0,33.9,28.0,-99.9,-99.9,-99.9,0,0,100,0.00,40.00,13,7,16,0.47
2013-1-11,54.0,46.5,37.0,-99.9,-99.9,-99.9,0,0,100,0.00,40.00,13,6,17,0.46
2013-1-12,52.0,34.4,21.0,-99.9,-99.9,-99.9,0,0,100,0.00,40.00,12,7,23,0.01
2013-1-13,21.0,16.5,14.0,-99.9,-99.9,-99.9,0,0,100,0.00,40.00,10,6,21,0.00
2013-1-14,32.0,17.7,10.0,-99.9,-99.9,-99.9,0,0,100,0.00,40.00,5,3,11,0.04
2013-1-15,34.0,22.1,13.0,-99.9,-99.9,-99.9,0,0,100,0.00,40.00,5,2,8,0.02
2013-1-16,38.0,27.8,17.0,-99.9,-99.9,-99.9,0,0,100,0.00,40.00,12,5,17,0.00
2013-1-17,37.0,28.1,22.0,-99.9,-99.9,-99.9,0,0,100,0.00,40.00,10,5,16,0.00
2013-1-18,48.0,36.8,25.0,-99.9,-99.9,-99.9,0,0,100,0.00,40.00,15,8,25,0.00
2013-1-19,50.0,41.0,24.0,-99.9,-99.9,-99.9,0,0,100,0.00,40.00,18,8,34,0.00
2013-1-20,22.0,14.9,10.0,-99.9,-99.9,-99.9,0,0,100,0.00,40.00,13,7,26,0.00
2013-1-21,13.0,7.4,2.0,-99.9,-99.9,-99.9,0,0,100,0.00,40.00,14,8,26,0.00
2013-1-22,14.0,8.5,1.0,-99.9,-99.9,-99.9,0,0,100,0.00,40.00,7,5,16,0.00
2013-1-23,29.0,18.6,13.0,-99.9,-99.9,-99.9,0,0,100,0.00,40.00,12,6,25,0.00
2013-1-24,22.0,13.2,5.0,-99.9,-99.9,-99.9,0,0,100,0.00,40.00,14,8,20,0.00
2013-1-25,35.0,25.1,17.0,-99.9,-99.9,-99.9,0,0,100,0.00,40.00,13,6,22,0.00
2013-1-26,34.0,21.0,10.0,-99.9,-99.9,-99.9,0,0,100,0.00,40.00,7,4,14,0.00
2013-1-27,42.0,32.1,28.0,-99.9,-99.9,-99.9,0,0,100,0.00,40.00,9,4,16,0.48
2013-1-28,47.0,41.4,37.0,-99.9,-99.9,-99.9,0,0,100,0.00,40.00,11,6,14,0.04
2013-1-29,61.0,50.7,36.0,-99.9,-99.9,-99.9,0,0,100,0.00,40.00,11,6,18,0.91
2013-1-30,36.0,27.9,17.0,-99.9,-99.9,-99.9,0,0,100,0.00,40.00,16,10,30,0.72
2013-1-31,12.0,7.5,1.0,-99.9,-99.9,-99.9,0,0,100,0.00,40.00,15,9,26,0.00